This is the latest recevied weather packets stored in our database for station/object WW3TRG. If no packets are shown the sender has not sent any weather packets the latest 10 day(s).
| Time | Temp. | Humidity | Pressure | Rain* | Wind** | Luminosity | Snow |
|---|---|---|---|---|---|---|---|
| 1777125972 | 8.89° C | 84% | 1014.8 hPa | 0 mm | - | 98 W/m² | - |
| 1777125669 | 8.89° C | 84% | 1014.8 hPa | 0 mm | - | 88 W/m² | - |
| 1777125365 | 8.89° C | 85% | 1014.6 hPa | 0 mm | - | 61 W/m² | - |
| 1777125060 | 8.89° C | 85% | 1014.3 hPa | 0 mm | - | 67 W/m² | - |
| 1777124756 | 8.89° C | 86% | 1014.2 hPa | 0 mm | - | 79 W/m² | - |
| 1777124451 | 8.89° C | 86% | 1013.9 hPa | 0 mm | - | 69 W/m² | - |
| 1777124149 | 8.89° C | 85% | 1014.2 hPa | 0 mm | - | 54 W/m² | - |
| 1777123845 | 8.89° C | 86% | 1014.2 hPa | 0 mm | - | 50 W/m² | - |
| 1777123542 | 8.89° C | 86% | 1014.3 hPa | 0 mm | - | 50 W/m² | - |
| 1777123238 | 8.89° C | 87% | 1014.2 hPa | 0 mm | - | 55 W/m² | - |
| 1777122934 | 8.89° C | 87% | 1014.3 hPa | 0 mm | - | 49 W/m² | - |
| 1777122631 | 8.89° C | 87% | 1014.2 hPa | 0 mm | - | 46 W/m² | - |
| 1777122325 | 8.89° C | 88% | 1014.4 hPa | 0 mm | - | 35 W/m² | - |
| 1777122023 | 8.89° C | 88% | 1014.2 hPa | 0 mm | - | 31 W/m² | - |
| 1777121718 | 8.89° C | 88% | 1014.2 hPa | 0 mm | - | 28 W/m² | - |
| 1777121416 | 8.89° C | 88% | 1014.1 hPa | 0 mm | - | 44 W/m² | - |
| 1777121116 | 8.89° C | 88% | 1014.5 hPa | 0 mm | - | 42 W/m² | - |
| 1777120814 | 8.89° C | 88% | 1014.1 hPa | 0 mm | - | 45 W/m² | - |
| 1777120509 | 8.89° C | 88% | 1014.3 hPa | 0 mm | - | 72 W/m² | - |
| 1777120204 | 8.89° C | 89% | 1014.4 hPa | 0 mm | - | 49 W/m² | - |
| 1777119900 | 8.89° C | 89% | 1014.1 hPa | 0 mm | - | 42 W/m² | - |
| 1777119597 | 8.89° C | 90% | 1014.2 hPa | 0 mm | - | 29 W/m² | - |
* Rain latest hour (hover to see other rain measurements)
** Current wind speed in m/s (hover to see current wind gust speed)